Find Starlink 34851

NORAD ID: 66447 Int'l Des: 2025-259 Owner: SPXS Country: US Constellation: starlink operational
LEOCIRCULAR

現在のビュー

3D地球を読み込み中...

Starlink 34851について

説明を読み込み中...

次回通過

Passes for default location (London). Set your location on the main map for personalized predictions.

高度履歴

Loading altitude history...

軌道要素

1 66447U 25259AB 26146.15455056 .00017551 00000-0 64562-3 0 9995
2 66447 42.9978 197.2801 0001111 269.1349 90.9375 15.27588412 31228
Epoch: May 26, 2026 • Age: 9 hours

現在のステータス

高度 492.2 km
速度 7.62 km/s
衛星直下点 -34.69°S, 10.09°W
打ち上げ日 Nov 11, 2025
運用期間 0.5 years
タイプ internet

技術仕様

分類 Payload
質量 575.00 kg
乾燥質量 530.00 kg
総質量 575.00 kg
長さ 0.30 m
直径 4.10 m
スパン 29.00 m
形状 Box + pan
製造者 SPXS
バスタイプ Starlink V2MO
フェーズステータス In Orbit
所有者/国 SPXS/US

Most Searched